Hourly Data Report for February 12, 2002

SHERBROOKE A
QUEBEC

45°26'00.000" N
71°41'00.000" W
241.40 m
7028124
71610
YSC

Download Data

Hourly Data (February 2002)
Hourly Data Report for February 12, 2002
TIME
LST
Temp Definition
°C
Dew Point Definition
°C
Rel Hum Definition
%
Precip. Amount Definition
mm

Wind Dir Definition
10's deg

Wind Spd Definition
km/h
Visibility Definition
km
Stn Press Definition
kPa
Hmdx Definition


Wind Chill Definition


Weather Definition


00:00 -24.3 -28.9 66   9 6 15.0 99.03   -30  
01:00 -24.5 -29.2 65   9 4 15.0 98.96   -28  
02:00 -23.3 -27.8 67   2 4 15.0 98.87   -27  
03:00 -20.6 -25.6 64   9 7 15.0 98.64   -26  
04:00 -19.2 -24.0 66     0 15.0 98.52      
05:00 -18.3 -23.1 66   8 4 15.0 98.39   -22  
06:00 -16.2 -22.4 59   12 7 15.0 98.14   -21  
07:00 -15.3 -21.3 60   9 7 15.0 97.94   -20  
08:00 -14.7 -20.8 60   3 6 24.1 97.81   -19 Mostly Cloudy
09:00 -12.0 -19.1 56     0 24.1 97.64     Mostly Cloudy
10:00 -7.6 -17.1 46   18 19 24.1 97.53   -15 Mostly Cloudy
11:00 -6.5 -15.4 49   16 19 24.1 97.45   -13 Mostly Cloudy
12:00 -5.8 -14.7 49   17 22 24.1 97.24   -13 Cloudy
13:00 -4.7 -12.8 53   19 22 24.1 97.12   -12 Cloudy
14:00 -4.3 -11.8 56   19 26 19.3 97.05   -12 Snow
15:00 -4.1 -10.3 62   19 20 16.1 97.04   -10 Snow
16:00 -3.7 -9.3 65   19 20 4.0 97.04   -10 Snow
17:00 -3.2 -8.5 67   19 24 12.9 97.02   -10 Snow
18:00 -2.6 -7.6 68   20 22 11.3 97.01   -9 Snow
19:00 -2.1 -6.8 70   20 22 12.9 97.03   -8 Snow
20:00 -1.9 -6.3 72   21 15 9.7 97.05   -7 Snow
21:00 -1.2 -6.0 70   21 20 15.0 97.10   -7 Snow
22:00 -1.5 -5.6 74   21 7 15.0 97.09   -4  
23:00 -1.3 -5.8 71   19 11 15.0 97.00   -5 Snow

Notes on Data Quality.

Legend

  • E = Estimated
  • M = Missing
  • NA = Not Available*
  • [empty] = Indicates an unobserved value
Date modified: